Menominee, MI

4:26 AM CDT on March 28, 2017 (GMT -0500)
Menominee-Marinette Twin County

Weather History for KMNM - November, 2011

Change the Weather History Date:

Wednesday, November 2, 2011

  Actual Average Record
Temperature  
Mean Temperature 44 °F -  
Max Temperature 48 °F 52 °F 74 °F (1990)
Min Temperature 39 °F 35 °F 9 °F (1951)
Degree Days  
Heating Degree Days 22    
Moisture  
Dew Point 42 °F    
Average Humidity 89    
Maximum Humidity 100    
Minimum Humidity 81    
Precipitation  
Precipitation 0.17 in - - ()
Sea Level Pressure  
Sea Level Pressure 30.06 in    
Wind  
Wind Speed 5 mph (North)    
Max Wind Speed 15 mph    
Max Gust Speed 24 mph    
Visibility 8 miles    
Events      
Averages and records for this station are not official NWS values.
T = Trace of Precipitation, MM = Missing Value Source: NWS Daily Summary

Daily Weather History Graph

Daily Weather History Graph

Search for Another Location

Airport or City:

Trip Planner

Search our weather history database for the weather conditions in past years. The results will help you decide how hot, cold, wet, or windy it might be!

Date:

Astronomy

Nov. 02, 2011 Rise Set
Actual Time 7:30 AM CDT 5:37 PM CDT
Civil Twilight 6:59 AM CDT 6:08 PM CDT
Nautical Twilight 6:24 AM CDT 6:42 PM CDT
Astronomical Twilight 5:50 AM CDT 7:17 PM CDT
Moon 1:49 PM CDT (11/2) No Moon Set
Length of Visible Light 11h 08m
Length of Day
10h 07m
Waxing Crescent, 50% of the Moon is Illuminated
Nov 2
Waxing Crescent
Nov 10
Full
Nov 18
Last Quarter
Nov 25
New
Dec 2
First Quarter

Hourly Weather History & Observations

Time (CDT) Temp. Windchill Dew Point Humidity Pressure Visibility Wind Dir Wind Speed Gust Speed Precip Events Conditions
12:35 AM 48.2 °F - 44.6 °F 87% 29.96 in 7.0 mi NNW 3.5 mph - N/A   Overcast
12:55 AM 48.2 °F - 42.8 °F 82% 29.97 in 7.0 mi NNW 3.5 mph - N/A   Overcast
1:15 AM 48.2 °F - 42.8 °F 82% 29.97 in 7.0 mi Calm Calm - N/A   Overcast
1:35 AM 48.2 °F - 44.6 °F 87% 29.97 in 6.0 mi Calm Calm - N/A   Overcast
1:55 AM 48.2 °F - 44.6 °F 87% 29.98 in 6.0 mi Calm Calm - N/A   Overcast
2:15 AM 48.2 °F - 44.6 °F 87% 29.97 in 6.0 mi Calm Calm - N/A   Overcast
2:35 AM 46.4 °F - 42.8 °F 87% 29.97 in 5.0 mi Calm Calm - N/A   Overcast
2:55 AM 48.2 °F - 44.6 °F 87% 29.98 in 5.0 mi North 3.5 mph - N/A   Overcast
3:15 AM 48.2 °F - 42.8 °F 82% 29.98 in 5.0 mi North 5.8 mph - N/A   Overcast
5:55 AM 46.4 °F 42.9 °F 42.8 °F 87% 30.02 in 8.0 mi North 6.9 mph - N/A   Overcast
6:15 AM 44.6 °F 41.4 °F 42.8 °F 93% 30.02 in 8.0 mi North 5.8 mph - N/A   Mostly Cloudy
6:35 AM 44.6 °F 41.4 °F 42.8 °F 93% 30.04 in 8.0 mi NNW 5.8 mph - N/A   Overcast
6:55 AM 44.6 °F 42.2 °F 42.8 °F 93% 30.03 in 7.0 mi NE 4.6 mph - N/A   Overcast
7:15 AM 44.6 °F 43.1 °F 42.8 °F 93% 30.04 in 7.0 mi NNE 3.5 mph - N/A   Overcast
7:35 AM 44.6 °F 42.2 °F 42.8 °F 93% 30.04 in 7.0 mi North 4.6 mph - N/A   Overcast
7:55 AM 44.6 °F 41.4 °F 42.8 °F 93% 30.05 in 7.0 mi NNE 5.8 mph - N/A   Overcast
8:55 AM 44.6 °F 43.1 °F 42.8 °F 93% 30.06 in 8.0 mi North 3.5 mph - N/A   Overcast
9:15 AM 44.6 °F 40.7 °F 44.6 °F 100% 30.06 in 8.0 mi North 6.9 mph - N/A   Overcast
9:35 AM 44.6 °F 40.2 °F 44.6 °F 100% 30.06 in 9.0 mi North 8.1 mph - N/A   Overcast
10:15 AM 44.6 °F 42.2 °F 42.8 °F 93% 30.05 in 10.0 mi NNE 4.6 mph - N/A   Overcast
10:35 AM 46.4 °F - 42.8 °F 87% 30.05 in 10.0 mi Calm Calm - N/A   Overcast
10:55 AM 46.4 °F 44.3 °F 44.6 °F 93% 30.06 in 10.0 mi North 4.6 mph - N/A   Overcast
11:15 AM 46.4 °F 42.9 °F 42.8 °F 87% 30.05 in 10.0 mi North 6.9 mph - N/A   Overcast
11:35 AM 46.4 °F 42.4 °F 42.8 °F 87% 30.05 in 10.0 mi NNW 8.1 mph - N/A   Overcast
11:55 AM 46.4 °F 43.5 °F 42.8 °F 87% 30.06 in 10.0 mi North 5.8 mph - N/A   Overcast
12:15 PM 46.4 °F 42.4 °F 42.8 °F 87% 30.06 in 10.0 mi NNW 8.1 mph - N/A   Overcast
12:35 PM 46.4 °F 42.4 °F 42.8 °F 87% 30.05 in 9.0 mi North 8.1 mph - N/A   Overcast
12:55 PM 44.6 °F 39.7 °F 42.8 °F 93% 30.05 in 5.0 mi North 9.2 mph - N/A   Overcast
1:15 PM 44.6 °F 40.2 °F 42.8 °F 93% 30.05 in 10.0 mi North 8.1 mph - N/A   Overcast
1:35 PM 44.6 °F 38.8 °F 42.8 °F 93% 30.05 in 10.0 mi North 11.5 mph - N/A   Overcast
1:55 PM 44.6 °F 39.7 °F 42.8 °F 93% 30.04 in 8.0 mi North 9.2 mph - N/A   Overcast
2:15 PM 44.6 °F 38.8 °F 42.8 °F 93% 30.05 in 9.0 mi North 11.5 mph - N/A   Overcast
2:35 PM 44.6 °F 39.2 °F 42.8 °F 93% 30.03 in 7.0 mi North 10.4 mph - N/A   Overcast
3:15 PM 44.6 °F 39.7 °F 42.8 °F 93% 30.05 in 8.0 mi North 9.2 mph - N/A   Mostly Cloudy
3:35 PM 44.6 °F 39.2 °F 41.0 °F 87% 30.06 in 7.0 mi North 10.4 mph 16.1 mph N/A   Overcast
3:55 PM 44.6 °F 39.2 °F 39.2 °F 81% 30.07 in 10.0 mi North 10.4 mph - N/A   Overcast
4:15 PM 44.6 °F 39.2 °F 39.2 °F 81% 30.07 in 8.0 mi North 10.4 mph 17.3 mph N/A   Mostly Cloudy
4:35 PM 42.8 °F 36.6 °F 39.2 °F 87% 30.06 in 8.0 mi North 11.5 mph 18.4 mph N/A   Overcast
4:55 PM 42.8 °F 35.4 °F 39.2 °F 87% 30.07 in 9.0 mi North 15.0 mph 24.2 mph 0.02 in   Overcast
5:15 PM 42.8 °F 38.0 °F 37.4 °F 81% 30.09 in 5.0 mi North 8.1 mph - 0.04 in   Overcast
5:35 PM 42.8 °F 39.3 °F 39.2 °F 87% 30.10 in 5.0 mi North 5.8 mph - 0.10 in   Overcast
5:55 PM 42.8 °F 39.3 °F 39.2 °F 87% 30.10 in 7.0 mi North 5.8 mph - 0.12 in   Overcast
6:15 PM 42.8 °F 39.3 °F 39.2 °F 87% 30.10 in 10.0 mi NNE 5.8 mph - 0.01 in   Overcast
6:35 PM 42.8 °F 38.6 °F 39.2 °F 87% 30.11 in 10.0 mi ENE 6.9 mph - 0.01 in   Overcast
7:35 PM 42.8 °F 41.1 °F 39.2 °F 87% 30.13 in 10.0 mi NNW 3.5 mph - 0.01 in   Overcast
7:55 PM 42.8 °F 41.1 °F 39.2 °F 87% 30.13 in 8.0 mi NNW 3.5 mph - 0.02 in   Overcast
8:15 PM 42.8 °F - 39.2 °F 87% 30.13 in 9.0 mi Calm Calm - N/A   Overcast
8:35 PM 42.8 °F - 39.2 °F 87% 30.14 in 7.0 mi Calm Calm - N/A   Overcast
8:55 PM 42.8 °F - 39.2 °F 87% 30.13 in 6.0 mi Calm Calm - N/A   Overcast
9:15 PM 42.8 °F - 39.2 °F 87% 30.14 in 10.0 mi Calm Calm - N/A   Overcast
9:35 PM 41.0 °F - 39.2 °F 93% 30.14 in 10.0 mi Calm Calm - N/A   Overcast
9:55 PM 41.0 °F - 39.2 °F 93% 30.12 in 10.0 mi Calm Calm - N/A   Overcast
10:15 PM 41.0 °F 37.1 °F 39.2 °F 93% 30.12 in 10.0 mi NNW 5.8 mph - N/A   Overcast
10:35 PM 41.0 °F 37.1 °F 39.2 °F 93% 30.12 in 10.0 mi NNW 5.8 mph - N/A   Scattered Clouds
10:55 PM 39.2 °F 35.0 °F 37.4 °F 93% 30.13 in 10.0 mi North 5.8 mph - N/A   Mostly Cloudy
11:15 PM 39.2 °F 34.2 °F 37.4 °F 93% 30.14 in 10.0 mi NNW 6.9 mph - N/A   Overcast
11:55 PM 39.2 °F 35.0 °F 37.4 °F 93% 30.14 in 10.0 mi NNW 5.8 mph - N/A   Clear